DW1436 Weather Reports


time (UTC)temp
C
wind
direction
speed
KPH
gust
KPH
rain 1hr
cm
rain 24hr
cm
rain mn
cm
humidity
%
barometer
mb
20260508122003 17 194 6.4 17.7 0.00 0.00 0.00 54 1016.8
20260508121504 17 216 6.4 19.3 0.00 0.00 0.00 55 1016.8
20260508121024 18 219 6.4 19.3 0.00 0.00 0.00 55 1016.7
20260508120525 17 207 6.4 24.1 0.00 0.00 0.00 57 1016.7
20260508120004 17 206 6.4 24.1 0.00 0.00 0.00 57 1016.7
20260508115503 17 209 6.4 19.3 0.00 0.00 0.00 56 1016.7
20260508115003 17 218 4.8 19.3 0.00 0.00 0.00 55 1016.7
20260508114504 17 218 4.8 19.3 0.00 0.00 0.00 56 1016.7
20260508114003 17 196 4.8 16.1 0.00 0.00 0.00 56 1016.7
20260508113504 17 190 6.4 16.1 0.00 0.00 0.00 55 1016.6
20260508113004 17 203 6.4 16.1 0.00 0.00 0.00 54 1016.7
20260508112504 17 202 6.4 17.7 0.00 0.00 0.00 53 1016.6
20260508112004 17 188 4.8 17.7 0.00 0.00 0.00 52 1016.6
20260508111503 18 182 4.8 16.1 0.00 0.00 0.00 52 1016.6
20260508111004 18 178 4.8 19.3 0.00 0.00 0.00 52 1016.7
20260508110503 17 173 4.8 19.3 0.00 0.00 0.00 54 1016.6
20260508110003 18 185 6.4 19.3 0.00 0.00 0.00 51 1016.6
20260508105504 18 207 6.4 19.3 0.00 0.00 0.00 52 1016.6
20260508105004 18 218 6.4 17.7 0.00 0.00 0.00 52 1016.7
20260508104503 18 210 4.8 17.7 0.00 0.00 0.00 52 1016.7
20260508104003 18 213 4.8 16.1 0.00 0.00 0.00 51 1016.6
20260508103503 18 222 4.8 11.3 0.00 0.00 0.00 50 1016.6
20260508103024 18 207 4.8 16.1 0.00 0.00 0.00 51 1016.7
20260508102504 18 192 4.8 16.1 0.00 0.00 0.00 53 1016.6
20260508102004 18 189 4.8 17.7 0.00 0.00 0.00 53 1016.6
20260508101503 18 202 3.2 17.7 0.00 0.00 0.00 53 1016.6
20260508101003 18 210 3.2 16.1 0.00 0.00 0.00 52 1016.6
20260508100504 17 188 3.2 16.1 0.00 0.00 0.00 55 1016.6
20260508100004 17 202 4.8 16.1 0.00 0.00 0.00 56 1016.6
20260508095504 17 197 4.8 16.1 0.00 0.00 0.00 54 1016.6
20260508095004 17 202 4.8 12.9 0.00 0.00 0.00 55 1016.6
20260508094503 17 215 4.8 12.9 0.00 0.00 0.00 55 1016.5
20260508094004 17 224 4.8 17.7 0.00 0.00 0.00 55 1016.6
20260508093503 17 227 4.8 17.7 0.00 0.00 0.00 55 1016.6
20260508093025 17 212 4.8 17.7 0.00 0.00 0.00 56 1016.5
20260508092525 17 216 4.8 17.7 0.00 0.00 0.00 59 1016.5
20260508092006 17 226 4.8 17.7 0.00 0.00 0.00 58 1016.5
20260508091503 16 212 3.2 12.9 0.00 0.00 0.00 61 1016.5
20260508091004 16 200 3.2 12.9 0.00 0.00 0.00 61 1016.5
20260508090503 16 204 4.8 12.9 0.00 0.00 0.00 63 1016.5
20260508090004 16 198 4.8 19.3 0.00 0.00 0.00 64 1016.5
20260508085503 15 188 4.8 19.3 0.00 0.00 0.00 66 1016.5
20260508085004 15 204 4.8 19.3 0.00 0.00 0.00 67 1016.5
20260508084525 15 206 4.8 19.3 0.00 0.00 0.00 67 1016.5
20260508084025 15 207 4.8 12.9 0.00 0.00 0.00 66 1016.5
20260508083503 15 204 6.4 12.9 0.00 0.00 0.00 67 1016.6
20260508083004 15 214 4.8 12.9 0.00 0.00 0.00 66 1016.6
20260508082504 15 227 4.8 12.9 0.00 0.00 0.00 67 1016.5
20260508082004 15 230 4.8 11.3 0.00 0.00 0.00 68 1016.5
20260508081504 15 222 4.8 11.3 0.00 0.00 0.00 70 1016.5
20260508081004 15 211 4.8 12.9 0.00 0.00 0.00 70 1016.5
20260508080504 14 192 6.4 12.9 0.00 0.00 0.00 70 1016.4
20260508080004 14 204 6.4 16.1 0.00 0.00 0.00 72 1016.4
20260508075504 14 211 6.4 17.7 0.00 0.00 0.00 71 1016.5
20260508075003 13 210 6.4 17.7 0.00 0.00 0.00 72 1016.4
20260508074504 13 212 4.8 17.7 0.00 0.00 0.00 72 1016.4
20260508074004 13 203 4.8 19.3 0.00 0.00 0.00 72 1016.3
20260508073504 13 214 4.8 19.3 0.00 0.00 0.00 72 1016.3
20260508073003 13 237 4.8 11.3 0.00 0.00 0.00 73 1016.4
20260508072504 13 218 6.4 11.3 0.00 0.00 0.00 74 1016.3
20260508072004 13 213 6.4 16.1 0.00 0.00 0.00 75 1016.3
20260508071504 13 217 4.8 16.1 0.00 0.00 0.00 74 1016.3
20260508071003 12 215 4.8 11.3 0.00 0.00 0.00 75 1016.3
20260508070503 12 218 3.2 17.7 0.00 0.00 0.00 76 1016.2
20260508070004 12 219 3.2 17.7 0.00 0.00 0.00 77 1016.2
20260508065503 12 216 1.6 11.3 0.00 0.00 0.00 78 1016.1
20260508065004 11 202 1.6 11.3 0.00 0.00 0.00 79 1016.1
20260508064504 11 186 1.6 8.0 0.00 0.00 0.00 79 1016.0
20260508064003 11 184 1.6 6.4 0.00 0.00 0.00 81 1015.8
20260508063504 11 197 1.6 6.4 0.00 0.00 0.00 81 1015.8
20260508063004 11 200 1.6 6.4 0.00 0.00 0.00 81 1015.8
20260508062503 11 191 1.6 6.4 0.00 0.00 0.00 81 1015.8
20260508062004 11 180 1.6 11.3 0.00 0.00 0.00 81 1015.7
20260508061503 10 178 1.6 11.3 0.00 0.00 0.00 81 1015.6
20260508061004 10 171 0.0 11.3 0.00 0.00 0.00 82 1015.6
20260508060503 10 162 0.0 11.3 0.00 0.00 0.00 83 1015.5
20260508060004 10 153 0.0 8.0 0.00 0.00 0.00 84 1015.5
20260508055525 10 155 1.6 6.4 0.00 0.00 0.00 84 1015.5
20260508055004 10 158 1.6 8.0 0.00 0.00 0.00 84 1015.4
20260508054525 10 156 1.6 8.0 0.00 0.00 0.00 83 1015.4
20260508054003 10 0 0.0 6.4 0.00 0.00 0.00 83 1015.5
20260508053503 10 150 0.0 4.8 0.00 0.00 0.00 83 1015.4
20260508053004 10 150 0.0 6.4 0.00 0.00 0.00 83 1015.4
20260508052503 10 146 1.6 6.4 0.00 0.00 0.00 83 1015.3
20260508052003 9 148 1.6 11.3 0.00 0.00 0.00 83 1015.2
20260508051503 9 151 0.0 11.3 0.00 0.00 0.00 84 1015.1
20260508051003 9 0 6.4 6.4 0.00 0.00 0.00 84 1015.1
20260508050504 9 0 6.4 6.4 0.00 0.00 0.00 84 1015.1
20260508050004 9 0 6.4 6.4 0.00 0.00 0.00 84 1015.2
20260508045504 9 0 4.8 4.8 0.00 0.00 0.00 84 1015.2
20260508045003 9 0 1.6 1.6 0.00 0.00 0.00 84 1015.2
20260508044504 9 0 1.6 1.6 0.00 0.00 0.00 84 1015.2
20260508044004 9 0 6.4 6.4 0.00 0.00 0.00 84 1015.2
20260508043525 9 0 6.4 6.4 0.00 0.00 0.00 84 1015.1
20260508043004 9 0 6.4 6.4 0.00 0.00 0.00 84 1015.2
20260508042524 9 0 6.4 6.4 0.00 0.00 0.00 84 1015.0
20260508042003 8 0 4.8 4.8 0.00 0.00 0.00 84 1015.0
20260508041504 8 0 4.8 4.8 0.00 0.00 0.00 83 1015.0
20260508041003 8 0 6.4 6.4 0.00 0.00 0.00 83 1015.1
20260508040503 8 0 6.4 6.4 0.00 0.00 0.00 83 1015.0
20260508040004 8 0 8.0 8.0 0.00 0.00 0.00 84 1015.0
20260508035504 8 0 8.0 8.0 0.00 0.00 0.00 83 1015.0
20260508035003 8 0 4.8 4.8 0.00 0.00 0.00 83 1015.0
20260508034503 8 0 4.8 4.8 0.00 0.00 0.00 83 1015.0
20260508034004 8 0 1.6 1.6 0.00 0.00 0.00 82 1015.0
20260508033504 8 0 1.6 1.6 0.00 0.00 0.00 82 1015.0
20260508033003 9 0 4.8 4.8 0.00 0.00 0.00 81 1014.9
20260508032525 9 0 4.8 4.8 0.00 0.00 0.00 81 1014.9
20260508032003 9 0 0.0 4.8 0.00 0.00 0.00 80 1014.8
20260508031503 9 0 0.0 4.8 0.00 0.00 0.00 80 1014.9
20260508031004 10 0 0.0 4.8 0.00 0.00 0.00 80 1014.9
20260508030504 10 0 0.0 1.6 0.00 0.00 0.00 79 1014.8
20260508030003 10 0 0.0 4.8 0.00 0.00 0.00 79 1014.8
20260508025504 10 0 0.0 4.8 0.00 0.00 0.00 79 1014.8
20260508025003 10 0 0.0 6.4 0.00 0.00 0.00 78 1014.8
20260508024504 10 0 0.0 6.4 0.00 0.00 0.00 78 1014.8
20260508024003 10 158 0.0 4.8 0.00 0.00 0.00 77 1014.9
20260508023504 10 152 0.0 1.6 0.00 0.00 0.00 77 1014.8
20260508023003 11 154 1.6 11.3 0.00 0.00 0.00 76 1014.7
20260508022504 11 154 1.6 11.3 0.00 0.00 0.00 76 1014.7
20260508022004 11 161 1.6 6.4 0.00 0.00 0.00 76 1014.7
20260508021504 11 187 3.2 11.3 0.00 0.00 0.00 76 1014.7
20260508021003 11 187 3.2 11.3 0.00 0.00 0.00 76 1014.7
20260508020503 11 195 4.8 11.3 0.00 0.00 0.00 76 1014.6
20260508020003 11 190 4.8 12.9 0.00 0.00 0.00 76 1014.6
20260508015504 11 179 3.2 12.9 0.00 0.00 0.00 76 1014.6
20260508015003 11 190 1.6 16.1 0.00 0.00 0.00 77 1014.7
20260508014503 10 175 1.6 17.7 0.00 0.00 0.00 77 1014.6
20260508014025 10 170 1.6 17.7 0.00 0.00 0.00 77 1014.7
20260508013503 10 180 0.0 11.3 0.00 0.00 0.00 78 1014.7
20260508013003 10 180 1.6 11.3 0.00 0.00 0.00 78 1014.7
20260508012524 10 185 1.6 11.3 0.00 0.00 0.00 78 1014.7
20260508012003 10 198 1.6 11.3 0.00 0.00 0.00 79 1014.7
20260508011504 10 197 1.6 11.3 0.00 0.00 0.00 78 1014.8
20260508011003 10 0 0.0 11.3 0.00 0.00 0.00 79 1014.7
20260508010503 10 170 0.0 6.4 0.00 0.00 0.00 80 1014.7
20260508010004 10 170 0.0 6.4 0.00 0.00 0.00 80 1014.8
20260508005504 10 153 1.6 11.3 0.00 0.00 0.00 80 1014.8
20260508005003 10 150 1.6 11.3 0.00 0.00 0.00 79 1014.8
20260508004504 10 147 1.6 16.1 0.00 0.00 0.00 79 1014.8
20260508004003 10 151 3.2 16.1 0.00 0.00 0.00 79 1014.8
20260508003503 10 151 4.8 16.1 0.00 0.00 0.00 79 1014.8
20260508003004 10 148 4.8 16.1 0.00 0.00 0.00 79 1014.8
20260508002503 10 145 3.2 17.7 0.00 0.00 0.00 79 1014.8
20260508002003 10 145 3.2 17.7 0.00 0.00 0.00 79 1014.8
20260508001504 10 151 3.2 17.7 0.00 0.00 0.00 79 1014.9
20260508001003 11 153 4.8 17.7 0.00 0.00 0.00 78 1014.9
20260508000503 11 147 6.4 19.3 0.00 0.00 0.00 78 1014.9
20260508000004 11 144 6.4 19.3 0.00 0.00 0.00 76 1015.0
20260507235504 11 144 4.8 19.3 0.00 0.00 0.00 76 1015.0
20260507235003 11 144 4.8 17.7 0.00 0.00 0.00 75 1014.9
20260507234503 11 143 3.2 17.7 0.00 0.00 0.00 75 1015.0
20260507234024 11 142 3.2 19.3 0.00 0.00 0.00 75 1014.9
20260507233524 11 140 4.8 19.3 0.00 0.00 0.00 75 1014.9
20260507233004 11 140 3.2 22.5 0.00 0.00 0.00 75 1014.9
20260507232504 11 139 3.2 22.5 0.00 0.00 0.00 75 1014.8
20260507232005 11 133 3.2 17.7 0.00 0.00 0.00 75 1014.9
20260507231525 11 143 3.2 12.9 0.00 0.00 0.00 75 1014.9
20260507231003 11 155 3.2 24.1 0.00 0.00 0.00 75 1014.8
20260507230524 11 155 3.2 24.1 0.00 0.00 0.00 75 1014.7
20260507230005 11 145 3.2 16.1 0.00 0.00 0.00 74 1014.8
20260507225504 11 134 3.2 16.1 0.00 0.00 0.00 74 1014.9
20260507225004 11 139 4.8 16.1 0.00 0.00 0.00 74 1014.8
20260507224505 11 140 4.8 17.7 0.00 0.00 0.00 74 1014.8
20260507224003 11 127 4.8 17.7 0.00 0.00 0.00 74 1014.7
20260507223503 11 123 4.8 22.5 0.00 0.00 0.00 74 1014.7
20260507223025 11 133 4.8 22.5 0.00 0.00 0.00 74 1014.7
20260507222504 11 126 4.8 17.7 0.00 0.00 0.00 74 1014.7
20260507222003 11 130 6.4 25.7 0.00 0.00 0.00 74 1014.7
20260507221503 11 138 6.4 25.7 0.00 0.00 0.00 73 1014.7
20260507221004 11 143 4.8 25.7 0.00 0.00 0.00 73 1014.6
20260507220524 11 147 4.8 25.7 0.00 0.00 0.00 73 1014.6
20260507220003 11 149 4.8 19.3 0.00 0.00 0.00 73 1014.8
20260507215503 11 149 4.8 19.3 0.00 0.00 0.00 72 1014.7
20260507215004 11 147 4.8 17.7 0.00 0.00 0.00 72 1014.8
20260507214504 11 145 4.8 17.7 0.00 0.00 0.00 72 1014.8
20260507214003 11 148 6.4 19.3 0.00 0.00 0.00 72 1014.8
20260507213525 11 152 6.4 19.3 0.00 0.00 0.00 73 1014.8
20260507213004 11 155 6.4 17.7 0.00 0.00 0.00 73 1014.8
20260507212503 11 154 4.8 17.7 0.00 0.00 0.00 73 1014.8
20260507212004 11 152 4.8 19.3 0.00 0.00 0.00 73 1014.8
20260507211503 11 153 4.8 19.3 0.00 0.00 0.00 74 1014.7
20260507211003 11 153 6.4 16.1 0.00 0.00 0.00 74 1014.7
20260507210524 11 156 6.4 22.5 0.00 0.00 0.00 74 1014.7
20260507210025 11 158 4.8 22.5 0.00 0.00 0.00 74 1014.6
20260507205504 11 158 4.8 17.7 0.00 0.00 0.00 74 1014.7
20260507205003 11 161 3.2 16.1 0.00 0.00 0.00 74 1014.5
20260507204504 11 158 3.2 17.7 0.00 0.00 0.00 74 1014.6
20260507204004 11 155 1.6 17.7 0.00 0.00 0.00 73 1014.6
20260507203504 11 164 1.6 11.3 0.00 0.00 0.00 74 1014.6
20260507203003 11 158 1.6 11.3 0.00 0.00 0.00 74 1014.6
20260507202504 11 157 1.6 11.3 0.00 0.00 0.00 73 1014.5
20260507202003 11 168 1.6 11.3 0.00 0.00 0.00 74 1014.5
20260507201504 11 166 1.6 12.9 0.00 0.00 0.00 73 1014.5
20260507201003 11 159 3.2 12.9 0.00 0.00 0.00 73 1014.5
20260507200504 11 158 4.8 12.9 0.00 0.00 0.00 73 1014.5
20260507200004 11 160 4.8 12.9 0.00 0.00 0.00 73 1014.5
20260507195503 12 159 4.8 16.1 0.00 0.00 0.00 72 1014.4
20260507195004 12 156 4.8 16.1 0.00 0.00 0.00 72 1014.4
20260507194504 12 158 4.8 16.1 0.00 0.00 0.00 71 1014.3
20260507194003 12 159 4.8 16.1 0.00 0.00 0.00 70 1014.3
20260507193504 12 157 4.8 16.1 0.00 0.00 0.00 68 1014.2
20260507193004 12 158 4.8 17.7 0.00 0.00 0.00 66 1014.2
20260507192505 12 160 4.8 17.7 0.00 0.00 0.00 65 1014.1
20260507192003 12 160 4.8 17.7 0.00 0.00 0.00 64 1014.1
20260507191504 12 159 3.2 17.7 0.00 0.00 0.00 64 1014.0
20260507191003 12 158 3.2 19.3 0.00 0.00 0.00 63 1014.1
20260507190504 12 160 1.6 19.3 0.00 0.00 0.00 63 1014.1
20260507190005 12 158 1.6 11.3 0.00 0.00 0.00 64 1014.1
20260507185503 13 153 1.6 11.3 0.00 0.00 0.00 63 1014.1
20260507185003 13 149 0.0 6.4 0.00 0.00 0.00 63 1014.0
20260507184503 13 0 0.0 6.4 0.00 0.00 0.00 63 1014.0
20260507184004 13 0 0.0 4.8 0.00 0.00 0.00 63 1014.0
20260507183503 13 0 0.0 4.8 0.00 0.00 0.00 62 1014.0
20260507183004 13 0 0.0 1.6 0.00 0.00 0.00 62 1014.1
20260507182503 13 155 0.0 1.6 0.00 0.00 0.00 63 1014.0
20260507182003 13 151 1.6 12.9 0.00 0.00 0.00 63 1014.0
20260507181503 13 143 3.2 12.9 0.00 0.00 0.00 62 1013.9
20260507181004 13 153 3.2 12.9 0.00 0.00 0.00 62 1013.9
20260507180503 13 159 3.2 12.9 0.00 0.00 0.00 61 1013.8
20260507180003 13 163 1.6 12.9 0.00 0.00 0.00 61 1013.7
20260507175504 13 155 1.6 12.9 0.00 0.00 0.00 61 1013.8
20260507175003 13 150 1.6 12.9 0.00 0.00 0.00 61 1013.8
20260507174524 13 143 3.2 8.0 0.00 0.00 0.00 61 1013.9
20260507174004 13 148 1.6 11.3 0.00 0.00 0.00 61 1013.9
20260507173526 13 149 1.6 11.3 0.00 0.00 0.00 61 1014.0
20260507173004 14 161 1.6 11.3 0.00 0.00 0.00 61 1014.0
20260507172504 14 181 1.6 11.3 0.00 0.00 0.00 61 1014.0
20260507172003 14 186 1.6 8.0 0.00 0.00 0.00 61 1014.0
20260507171503 14 205 1.6 11.3 0.00 0.00 0.00 63 1014.1
20260507171025 14 196 1.6 11.3 0.00 0.00 0.00 62 1014.1
20260507170525 14 192 1.6 8.0 0.00 0.00 0.00 62 1014.2
20260507170004 14 196 1.6 11.3 0.00 0.00 0.00 63 1014.2
20260507165504 13 198 3.2 11.3 0.00 0.00 0.00 62 1014.3
20260507165004 13 208 3.2 11.3 0.00 0.00 0.00 62 1014.4
20260507164503 13 207 4.8 16.1 0.00 0.00 0.00 62 1014.3
20260507164003 13 207 4.8 16.1 0.00 0.00 0.00 62 1014.3
20260507163503 13 221 4.8 11.3 0.00 0.00 0.00 62 1014.3
20260507163003 13 220 4.8 11.3 0.00 0.00 0.00 64 1014.3
20260507162503 13 213 3.2 11.3 0.00 0.00 0.00 62 1014.4
20260507162026 13 206 3.2 11.3 0.00 0.00 0.00 64 1014.3
20260507161504 13 183 1.6 11.3 0.00 0.00 0.00 64 1014.4
20260507161003 13 192 3.2 16.1 0.00 0.00 0.00 63 1014.4
20260507160504 13 193 3.2 16.1 0.00 0.00 0.00 65 1014.4
20260507160003 13 186 3.2 17.7 0.00 0.00 0.00 64 1014.4
20260507155504 13 193 3.2 17.7 0.00 0.00 0.00 64 1014.4
20260507155004 13 208 4.8 12.9 0.00 0.00 0.00 65 1014.4
20260507154503 12 210 3.2 12.9 0.00 0.00 0.00 64 1014.4
20260507154005 13 202 1.6 11.3 0.00 0.00 0.00 65 1014.5
20260507153504 13 184 1.6 11.3 0.00 0.00 0.00 64 1014.6
20260507153003 13 191 1.6 11.3 0.00 0.00 0.00 64 1014.6
20260507152504 13 216 1.6 8.0 0.00 0.00 0.00 64 1014.6
20260507152003 13 196 3.2 16.1 0.00 0.00 0.00 64 1014.6
20260507151504 13 186 3.2 16.1 0.00 0.00 0.00 63 1014.6
20260507151005 13 188 3.2 16.1 0.00 0.00 0.00 63 1014.6
20260507150503 13 180 4.8 19.3 0.00 0.00 0.00 62 1014.7
20260507150004 13 177 3.2 19.3 0.00 0.00 0.00 64 1014.7
20260507145504 13 174 3.2 19.3 0.00 0.00 0.00 63 1014.7
20260507145004 13 170 3.2 19.3 0.00 0.00 0.00 65 1014.7
20260507144503 13 188 4.8 12.9 0.00 0.00 0.00 67 1014.8
20260507144004 13 207 4.8 12.9 0.00 0.00 0.00 66 1014.8
20260507143503 12 200 4.8 12.9 0.00 0.00 0.00 67 1014.8
20260507143025 12 184 4.8 16.1 0.00 0.00 0.00 67 1014.9
20260507142504 12 194 6.4 16.1 0.00 0.00 0.00 67 1014.9
20260507142003 12 201 6.4 22.5 0.00 0.00 0.00 66 1015.0
20260507141503 12 197 4.8 22.5 0.00 0.00 0.00 66 1015.0
20260507141003 12 190 4.8 17.7 0.00 0.00 0.00 65 1015.0
20260507140503 12 152 4.8 17.7 0.00 0.00 0.00 66 1015.0
20260507140003 12 172 6.4 17.7 0.00 0.00 0.00 66 1015.0
20260507135503 12 204 6.4 17.7 0.00 0.00 0.00 66 1015.0
20260507135005 12 207 6.4 17.7 0.00 0.00 0.00 65 1015.0
20260507134503 12 203 8.0 17.7 0.00 0.00 0.00 64 1015.1
20260507134003 12 200 8.0 19.3 0.00 0.00 0.00 65 1015.2
20260507133504 12 200 8.0 22.5 0.00 0.00 0.00 63 1015.2
20260507133025 12 196 6.4 22.5 0.00 0.00 0.00 64 1015.2
20260507132505 12 189 6.4 17.7 0.00 0.00 0.00 64 1015.2
20260507132004 13 180 6.4 22.5 0.00 0.00 0.00 65 1015.2
20260507131524 13 192 6.4 22.5 0.00 0.00 0.00 64 1015.3
20260507131026 13 186 6.4 22.5 0.00 0.00 0.00 63 1015.3
20260507130503 13 179 6.4 17.7 0.00 0.00 0.00 63 1015.2
20260507130003 13 182 6.4 25.7 0.00 0.00 0.00 63 1015.2
20260507125525 13 179 6.4 25.7 0.00 0.00 0.00 62 1015.1
20260507125003 13 167 8.0 22.5 0.00 0.00 0.00 63 1015.2
20260507124524 13 173 8.0 24.1 0.00 0.00 0.00 63 1015.2
20260507124003 13 200 8.0 33.8 0.00 0.00 0.00 62 1015.2
20260507123503 13 199 8.0 33.8 0.00 0.00 0.00 62 1015.2
20260507123004 13 191 6.4 22.5 0.00 0.00 0.00 61 1015.2
20260507122504 13 189 6.4 24.1 0.00 0.00 0.00 61 1015.1